Theta_e
326 326 327 328 328 328 328 328 327 327 328 327 327 326 325 324 323 323 323 323 323 323 324 326 328 328 328 328 328 329 329 329 328 329 329 330 331 331 332 331 331 331
324 324 325 326 326 327 327 327 326 327 327 326 326 325 324 324 324 324 324 323 323 324 324 326 328 328 329 329 329 329 329 328 328 329 330 331 330 331 331 331 331 331
322 322 323 323 325 325 326 326 327 327 327 326 326 325 324 324 324 323 323 324 324 324 325 326 326 327 328 328 329 329 329 329 329 329 329 330 330 331 331 331 331 330
321 321 322 324 325 326 326 327 327 327 327 326 326 325 324 324 324 323 324 324 324 325 326 326 325 326 327 328 329 329 329 329 329 329 330 330 330 331 331 331 331 330
322 323 323 324 325 325 326 326 327 327 326 326 325 325 325 325 324 324 324 324 324 325 326 326 326 328 328 329 330 330 329 329 329 329 330 330 330 330 330 330 331 331
322 323 324 324 324 324 324 325 326 326 326 325 325 325 326 325 324 324 323 324 324 324 325 326 327 328 328 328 329 328 329 328 328 329 329 329 328 329 330 330 330 330
322 322 323 323 323 323 323 324 325 325 326 325 325 326 326 325 324 324 324 325 325 324 324 325 325 326 326 327 328 328 328 326 325 327 329 328 327 328 329 330 329 329
321 321 322 323 323 323 322 322 323 325 325 325 325 326 327 325 324 324 325 325 325 324 324 324 324 325 326 327 327 327 327 326 323 324 325 327 329 329 328 326 326 326
321 321 322 322 322 323 322 322 323 325 325 324 324 325 326 326 325 325 325 325 326 325 325 325 325 326 327 328 327 326 327 328 326 325 324 323 325 327 325 324 324 324
322 322 322 322 322 322 322 323 323 324 324 323 323 324 324 325 326 325 326 326 326 326 326 326 327 326 327 327 326 326 327 328 327 328 327 324 323 324 323 323 324 323
323 323 322 322 322 322 322 323 323 323 322 322 322 322 322 323 325 325 325 325 326 326 325 326 327 326 326 326 326 326 327 327 326 326 327 326 326 326 325 326 325 323
322 322 321 321 320 320 321 321 322 321 321 320 321 322 322 322 322 323 324 324 324 325 325 326 327 326 326 326 326 325 326 326 325 326 326 326 326 325 325 327 328 327
321 320 320 320 319 319 320 320 320 319 320 321 321 321 321 321 321 322 323 323 324 325 326 326 325 324 325 324 325 325 324 325 325 325 325 326 326 325 324 326 328 327
320 319 319 319 319 320 320 320 319 319 319 320 319 320 320 321 322 322 323 323 324 324 324 325 324 324 324 323 323 324 324 324 324 324 325 325 325 326 326 326 327 326
318 318 318 319 319 319 320 320 320 319 318 318 318 319 320 321 321 322 323 323 323 323 323 323 323 323 322 322 322 322 323 323 323 322 324 324 324 324 325 325 326 326
317 317 318 318 318 318 318 319 319 319 318 318 318 318 318 318 319 319 321 321 321 321 320 320 321 321 321 321 321 322 322 322 322 322 322 322 323 323 324 325 326 326
316 317 317 318 318 317 317 317 317 317 317 317 316 316 316 316 316 318 319 320 320 319 319 319 319 319 319 319 320 320 319 319 320 321 323 323 323 324 324 325 325 325
316 317 318 318 317 317 316 316 316 316 316 316 316 316 316 316 316 317 319 319 319 318 318 317 317 318 318 317 317 317 317 317 317 319 321 322 321 322 323 323 322 322
315 317 317 317 317 316 316 316 316 316 315 316 316 315 315 315 315 316 317 317 317 317 318 317 317 318 318 318 318 316 315 315 315 316 318 318 317 317 319 321 322 322
314 315 316 316 316 315 315 315 315 315 315 315 315 315 315 314 314 314 315 315 316 316 317 316 316 316 317 318 318 318 316 314 314 314 314 314 314 314 316 319 321 321
314 315 315 315 315 315 315 314 314 314 314 314 314 315 315 314 314 314 314 314 314 315 315 315 315 315 316 316 317 317 317 316 315 314 314 314 315 315 315 317 319 320
314 314 314 314 314 314 314 313 313 313 313 313 313 313 314 314 314 314 314 314 314 314 314 314 314 314 315 315 316 317 317 317 317 317 317 317 317 317 317 317 318 319
313 313 313 313 313 313 312 312 312 312 312 312 312 312 312 312 313 313 313 313 313 313 313 313 312 312 313 313 314 315 315 315 316 316 317 317 317 317 317 317 317 318
311 312 312 311 311 311 311 310 310 310 310 310 310 311 311 311 311 311 311 311 311 310 310 311 310 310 311 311 312 312 313 313 314 314 315 315 315 315 315 315 315 316
310 310 310 310 310 309 309 308 308 307 307 308 308 309 309 309 309 309 309 308 307 307 307 307 308 308 308 309 310 310 311 311 312 312 313 313 313 313 313 313 313 314
307 307 307 307 307 307 306 306 305 304 304 305 305 305 305 305 305 305 304 303 302 302 303 303 304 304 304 305 306 307 308 309 310 310 310 311 312 311 312 312 312 312
Wind_Speed
10 11 12 12 12 13 13 13 13 13 12 13 14 16 17 18 18 19 20 20 21 22 22 20 19 19 19 18 17 17 17 20 22 23 25 27 27 27 27 28 30 33
7 8 9 9 9 10 10 10 11 11 10 12 14 15 16 17 18 18 19 19 20 21 20 18 17 15 14 13 14 15 17 19 20 20 21 23 23 22 22 23 25 30
3 3 4 4 5 6 7 7 8 8 9 11 13 14 15 16 16 16 17 19 19 18 17 16 16 15 13 13 14 16 16 17 18 18 19 21 21 21 22 23 23 25
2 2 2 2 3 5 6 6 6 7 9 11 12 13 14 15 15 16 17 17 18 17 16 14 14 14 13 13 14 15 15 14 14 14 16 19 20 21 22 23 23 23
1 1 2 2 3 5 6 6 7 8 9 10 11 13 13 14 15 16 16 17 18 18 16 13 11 11 11 11 11 12 12 11 11 11 13 15 18 21 22 22 23 24
1 2 2 4 5 6 7 7 7 7 8 10 11 12 12 13 15 16 16 17 18 18 16 15 14 13 13 12 11 10 10 9 8 8 9 9 10 13 18 20 21 22
3 3 2 3 5 7 7 7 7 6 7 9 11 11 12 13 15 16 16 18 18 17 16 16 15 14 14 13 12 11 9 8 7 6 5 5 7 5 5 9 10 11
3 3 3 3 4 6 6 6 7 7 7 9 11 11 11 13 15 16 17 17 17 16 15 15 14 14 13 13 13 12 9 7 6 6 5 5 6 4 1 0 3 5
3 4 4 3 4 5 7 8 9 9 9 10 10 10 11 13 15 16 16 17 16 15 14 15 15 14 13 13 14 13 10 9 8 6 4 4 4 3 2 1 3 6
4 5 6 6 6 8 9 9 9 10 10 11 10 11 12 14 14 15 15 16 16 15 15 16 15 14 13 13 14 13 13 12 11 9 6 4 2 1 1 2 3 4
8 8 8 8 9 9 9 9 9 10 11 11 12 13 14 14 14 15 16 17 17 17 16 15 15 15 15 14 14 14 14 13 13 12 10 8 6 5 4 3 3 5
11 11 10 10 9 10 10 10 10 11 11 12 13 14 15 15 16 17 18 19 19 18 16 14 14 15 15 15 15 14 14 13 12 12 11 10 10 8 7 7 4 2
13 12 11 10 10 11 11 11 11 11 11 13 13 13 15 16 17 18 19 19 19 17 15 14 14 15 16 16 16 15 15 14 13 13 11 10 9 7 5 6 5 4
14 13 13 13 13 14 14 13 13 11 11 13 14 15 17 17 18 18 17 17 17 15 14 13 13 14 17 18 17 17 16 15 15 15 13 10 9 8 6 6 5 4
15 15 16 17 18 18 18 18 16 15 15 17 17 18 19 19 17 17 16 16 17 16 16 15 15 16 18 19 19 19 17 17 17 17 16 13 12 11 8 6 6 6
16 17 18 20 20 21 21 21 21 20 20 20 19 19 18 18 18 17 16 17 17 17 18 18 19 20 20 20 20 20 20 19 19 18 17 15 14 14 11 9 9 8
17 18 19 20 20 20 20 21 20 20 20 19 18 18 17 18 18 17 17 17 16 17 18 20 21 20 20 19 20 20 20 21 21 20 18 17 16 15 14 12 12 11
18 18 18 19 19 19 19 19 18 18 18 18 17 18 18 18 18 18 17 17 16 17 18 19 19 19 18 18 18 18 18 19 20 20 20 20 20 18 16 15 14 14
17 17 18 18 19 19 18 18 17 18 18 18 18 18 17 18 18 18 18 17 17 18 18 19 19 19 17 16 16 15 15 15 16 18 19 20 20 20 20 18 17 16
15 16 17 17 18 18 17 17 18 18 19 19 18 17 17 17 17 18 18 19 19 20 20 21 22 21 18 16 15 14 13 13 13 13 14 15 16 17 18 19 19 18
15 16 16 16 16 16 16 18 19 20 20 19 19 18 18 18 18 18 19 20 20 20 21 22 23 22 19 18 16 14 13 13 12 12 11 12 12 12 13 16 18 19
17 17 17 17 17 17 18 19 20 20 20 20 19 20 20 20 20 21 22 22 22 21 22 23 24 23 21 20 18 16 15 15 14 13 12 12 13 13 14 15 17 18
18 18 19 19 18 18 19 20 19 19 19 18 17 18 19 20 21 23 24 24 24 24 24 25 25 24 23 21 20 19 18 17 17 15 15 15 14 14 15 16 17 17
18 17 18 18 18 19 19 19 19 19 19 18 18 18 19 20 21 22 23 23 24 24 24 23 24 24 22 21 21 20 20 20 20 19 18 18 17 16 15 15 16 16
17 17 18 18 19 19 20 20 20 20 20 20 20 21 22 22 21 21 22 23 23 23 23 23 23 23 22 21 20 19 19 19 19 20 21 20 18 17 17 16 16 16
18 18 19 19 19 19 20 20 21 21 21 22 22 23 23 23 23 23 24 25 25 25 25 26 26 25 24 24 22 21 20 19 18 20 21 19 18 17 18 18 18 18
Wind_Direction
262 264 268 270 271 276 281 288 297 305 312 317 320 322 325 327 325 321 317 314 314 315 316 311 303 295 288 283 280 280 283 284 280 274 268 265 261 258 258 257 252 244
269 268 270 273 275 279 285 293 304 313 320 322 322 323 327 330 329 327 325 324 322 321 319 314 310 304 294 290 289 285 284 284 282 278 271 267 265 262 259 255 254 251
286 275 276 288 301 306 305 308 315 322 325 324 323 325 329 334 336 338 340 339 338 336 328 319 315 309 299 295 293 288 286 287 284 279 272 269 268 268 263 253 250 254
6 331 322 332 338 332 327 323 318 322 329 330 330 332 336 340 344 349 352 350 351 352 343 329 320 316 312 307 299 292 287 286 284 281 276 273 271 270 267 258 249 248
16 4 2 347 326 318 322 322 317 323 337 340 342 344 345 349 352 355 357 356 358 358 355 352 349 344 340 332 320 306 296 293 293 292 286 280 276 271 269 265 254 246
42 40 12 349 333 321 318 313 311 327 347 351 353 353 353 357 359 359 358 357 360 360 2 11 15 13 7 0 353 338 330 335 331 313 296 291 297 284 269 261 251 246
48 49 37 359 339 328 324 317 319 338 355 354 354 357 2 5 4 4 360 358 2 2 4 12 17 16 11 9 9 3 360 12 15 7 351 349 13 6 274 254 249 251
54 60 64 12 336 333 342 348 354 6 4 350 352 1 9 11 9 8 4 0 5 7 6 9 11 11 9 7 12 14 16 23 24 24 21 18 37 56 103 289 284 265
64 62 66 40 14 9 16 20 20 21 13 1 359 1 9 16 14 11 8 4 7 11 11 9 7 9 12 10 12 13 11 11 12 9 5 21 60 97 150 187 265 246
78 75 74 62 49 38 29 25 21 20 19 15 8 1 5 17 17 11 9 7 8 11 12 13 12 14 17 16 13 15 16 16 16 16 16 22 50 108 199 249 243 232
86 81 74 63 51 41 34 29 27 27 27 23 17 8 7 16 17 14 15 15 14 14 12 15 18 19 21 22 20 20 23 24 23 25 35 41 40 40 20 335 265 247
80 75 69 60 48 41 37 34 36 34 31 31 27 19 16 19 20 20 22 22 21 21 22 25 27 26 28 30 28 26 26 28 28 28 34 40 40 36 20 10 4 293
75 71 67 59 50 44 41 41 45 42 39 39 36 30 28 26 25 26 27 26 26 29 34 37 35 34 38 40 36 33 30 28 29 30 34 39 41 38 16 6 13 11
75 72 68 63 59 56 54 54 56 55 54 52 46 43 42 37 35 34 35 36 36 38 41 41 39 40 43 44 42 39 36 31 29 33 40 42 36 30 18 8 7 2
80 77 75 73 69 67 66 65 66 68 67 65 59 55 52 48 44 42 44 46 45 44 44 42 41 41 41 41 41 40 38 36 35 38 42 43 37 30 22 18 17 7
85 83 82 80 76 72 70 68 69 69 68 67 65 62 58 53 49 48 49 50 48 48 49 47 45 45 44 44 46 46 46 45 44 43 41 38 34 31 28 27 26 17
90 88 86 84 80 76 74 71 70 69 67 66 63 59 55 52 50 50 52 53 52 52 51 50 48 46 45 45 47 47 48 48 46 46 45 42 39 36 33 31 27 21
93 93 91 88 85 80 76 74 72 70 68 65 60 56 53 51 50 52 56 57 54 50 48 47 47 46 43 41 42 43 44 44 44 45 47 48 44 37 34 33 30 24
100 100 96 92 89 84 81 77 73 71 68 65 63 61 57 55 55 56 57 57 54 52 50 49 50 49 43 38 39 39 36 35 39 43 45 43 37 30 27 28 30 28
103 102 97 93 91 88 85 80 73 70 68 66 66 64 62 62 61 59 58 57 57 57 56 55 54 51 47 42 40 36 33 33 38 42 40 33 27 24 22 21 23 25
98 100 96 93 91 89 85 80 74 70 68 66 65 64 65 66 64 61 60 59 59 59 59 58 57 53 50 48 44 39 36 37 40 42 42 39 37 37 35 31 31 31
94 96 94 90 87 84 81 78 74 71 68 66 65 67 67 68 67 65 62 61 61 60 60 60 58 54 51 50 49 47 44 44 45 47 52 57 59 57 56 54 50 45
92 92 91 88 84 80 78 75 73 71 68 64 63 65 66 67 69 69 66 65 63 61 61 60 58 54 51 49 48 47 47 47 45 46 50 53 54 55 57 60 59 58
92 91 89 86 83 80 77 75 73 71 69 66 64 64 66 67 69 70 68 65 62 60 60 60 59 56 51 47 45 42 43 44 42 41 42 41 41 44 48 55 58 59
89 87 85 83 81 81 80 77 76 75 73 73 71 70 72 72 72 71 69 66 63 61 60 59 59 58 54 51 49 44 43 45 44 42 41 38 36 37 38 44 50 53
87 85 83 82 81 82 82 80 79 79 79 78 77 77 77 76 75 74 72 69 66 64 63 61 59 59 57 55 54 52 50 49 48 48 47 45 43 40 38 38 39 43